| time (UTC) | temp F | wind direction | speed knots | gust knots | rain 1hr in | rain 24hr in | rain mn in | humidity % | barometer mb |
| 20260505153041 | 54 | 176 | 0.0 | 0.0 | 0.00 | 0.00 | 0.00 | 94 | 1015.3 |
| 20260505151522 | 54 | 176 | 0.0 | 2.6 | 0.00 | 0.00 | 0.00 | 94 | 1015.3 |
| 20260505124524 | 55 | 176 | 0.0 | 0.0 | 0.00 | 0.00 | 0.00 | 91 | 1014.2 |
| 20260505123027 | 55 | 176 | 0.0 | 0.0 | 0.00 | 0.00 | 0.00 | 91 | 1014.1 |
| 20260505121525 | 55 | 176 | 0.0 | 0.0 | 0.00 | 0.00 | 0.00 | 90 | 1014.1 |
| 20260505120031 | 55 | 176 | 0.0 | 0.0 | 0.00 | 0.00 | 0.00 | 90 | 1014.0 |
| 20260505114521 | 54 | 176 | 0.0 | 0.0 | 0.00 | 0.00 | 0.00 | 89 | 1014.0 |
| 20260505113120 | 54 | 176 | 0.0 | 0.0 | 0.00 | 0.00 | 0.00 | 89 | 1014.0 |
| 20260505111557 | 54 | 176 | 0.0 | 0.0 | 0.00 | 0.00 | 0.00 | 89 | 1013.9 |
| 20260505101520 | 55 | 176 | 0.0 | 0.0 | 0.00 | 0.00 | 0.00 | 88 | 1013.4 |
| 20260505100059 | 55 | 176 | 0.0 | 0.0 | 0.00 | 0.00 | 0.00 | 87 | 1013.4 |
| 20260505094557 | 55 | 176 | 0.0 | 0.0 | 0.00 | 0.00 | 0.00 | 87 | 1013.4 |
| 20260505093039 | 55 | 176 | 0.0 | 0.0 | 0.00 | 0.00 | 0.00 | 88 | 1013.3 |
| 20260505091542 | 55 | 176 | 0.0 | 0.0 | 0.00 | 0.00 | 0.00 | 88 | 1013.1 |
| 20260505090021 | 55 | 176 | 0.0 | 0.0 | 0.00 | 0.00 | 0.00 | 87 | 1013.0 |
| 20260505084516 | 56 | 176 | 0.0 | 0.0 | 0.00 | 0.00 | 0.00 | 88 | 1012.9 |
| 20260505083102 | 56 | 176 | 0.0 | 0.0 | 0.00 | 0.00 | 0.00 | 87 | 1012.9 |
| 20260505081605 | 56 | 176 | 0.0 | 0.0 | 0.00 | 0.00 | 0.00 | 86 | 1012.9 |
| 20260505080039 | 57 | 176 | 0.0 | 0.0 | 0.00 | 0.00 | 0.00 | 84 | 1012.7 |
| 20260505074533 | 57 | 176 | 0.0 | 0.0 | 0.00 | 0.00 | 0.00 | 83 | 1012.5 |
| 20260505073013 | 58 | 176 | 0.9 | 4.3 | 0.00 | 0.00 | 0.00 | 83 | 1012.3 |
| 20260505071526 | 58 | 187 | 0.0 | 2.6 | 0.00 | 0.00 | 0.00 | 82 | 1012.1 |
| 20260505070059 | 59 | 188 | 0.0 | 5.2 | 0.00 | 0.00 | 0.00 | 81 | 1012.0 |
| 20260505064550 | 60 | 183 | 0.9 | 5.2 | 0.00 | 0.00 | 0.00 | 80 | 1011.8 |
| 20260505063027 | 60 | 173 | 4.3 | 8.7 | 0.00 | 0.00 | 0.00 | 80 | 1011.5 |
| 20260505061525 | 60 | 150 | 3.5 | 7.0 | 0.00 | 0.00 | 0.00 | 81 | 1011.1 |
| 20260505060016 | 60 | 59 | 0.0 | 0.0 | 0.00 | 0.00 | 0.00 | 80 | 1011.0 |
| 20260505054503 | 61 | 59 | 0.0 | 1.7 | 0.00 | 0.00 | 0.00 | 78 | 1011.0 |
| 20260505053043 | 62 | 59 | 0.0 | 4.3 | 0.00 | 0.00 | 0.00 | 77 | 1010.9 |
| 20260505051556 | 63 | 90 | 0.0 | 0.0 | 0.00 | 0.00 | 0.00 | 75 | 1010.8 |
| 20260505041554 | 69 | 191 | 0.0 | 3.5 | 0.00 | 0.00 | 0.00 | 68 | 1010.1 |
| 20260505040029 | 70 | 191 | 0.0 | 0.0 | 0.00 | 0.00 | 0.00 | 67 | 1009.9 |
| 20260505034526 | 71 | 191 | 0.9 | 4.3 | 0.00 | 0.00 | 0.00 | 66 | 1009.7 |
| 20260505033006 | 71 | 240 | 0.0 | 2.6 | 0.00 | 0.00 | 0.00 | 66 | 1009.5 |
| 20260505031503 | 73 | 242 | 0.0 | 5.2 | 0.00 | 0.00 | 0.00 | 64 | 1009.1 |
| 20260505030043 | 73 | 235 | 0.0 | 1.7 | 0.00 | 0.00 | 0.00 | 65 | 1009.0 |
| 20260505024543 | 74 | 235 | 0.0 | 0.0 | 0.00 | 0.00 | 0.00 | 64 | 1008.9 |
| 20260505023026 | 74 | 235 | 0.0 | 2.6 | 0.00 | 0.00 | 0.00 | 64 | 1008.8 |
| 20260505021528 | 74 | 197 | 0.9 | 2.6 | 0.00 | 0.00 | 0.00 | 64 | 1008.8 |
| 20260505020002 | 75 | 246 | 0.0 | 3.5 | 0.00 | 0.00 | 0.00 | 63 | 1008.8 |
| 20260505014559 | 76 | 244 | 0.0 | 3.5 | 0.00 | 0.00 | 0.00 | 60 | 1008.8 |
| 20260505013058 | 77 | 246 | 0.0 | 7.0 | 0.00 | 0.02 | 0.00 | 58 | 1008.9 |
| 20260505011540 | 78 | 259 | 1.7 | 5.2 | 0.00 | 0.02 | 0.00 | 56 | 1008.9 |
| 20260505010021 | 78 | 215 | 0.0 | 5.2 | 0.00 | 0.02 | 0.00 | 57 | 1009.0 |
| 20260505004524 | 78 | 176 | 0.0 | 5.2 | 0.00 | 0.02 | 0.00 | 57 | 1009.2 |
| 20260505003007 | 77 | 250 | 0.0 | 6.1 | 0.00 | 0.02 | 0.00 | 58 | 1009.0 |
| 20260505001506 | 78 | 242 | 0.0 | 7.8 | 0.00 | 0.02 | 0.00 | 57 | 1009.2 |
| 20260505000007 | 78 | 221 | 2.6 | 7.8 | 0.00 | 0.02 | 0.00 | 55 | 1009.3 |
| 20260504234502 | 78 | 236 | 0.0 | 7.0 | 0.00 | 0.02 | 0.00 | 54 | 1009.3 |
| 20260504233107 | 77 | 240 | 0.0 | 5.2 | 0.00 | 0.02 | 0.00 | 56 | 1009.4 |
| 20260504231558 | 76 | 227 | 1.7 | 6.1 | 0.00 | 0.02 | 0.00 | 56 | 1009.6 |
| 20260504230103 | 76 | 240 | 0.0 | 6.1 | 0.00 | 0.02 | 0.00 | 56 | 1009.8 |
| 20260504224553 | 77 | 232 | 0.0 | 4.3 | 0.00 | 0.02 | 0.00 | 54 | 1009.9 |
| 20260504223038 | 76 | 282 | 0.9 | 4.3 | 0.00 | 0.02 | 0.02 | 57 | 1010.1 |
| 20260504221532 | 74 | 244 | 0.0 | 6.1 | 0.00 | 0.02 | 0.02 | 58 | 1010.4 |
| 20260504220020 | 75 | 271 | 1.7 | 6.1 | 0.00 | 0.02 | 0.02 | 58 | 1010.6 |
| 20260504214520 | 73 | 250 | 0.9 | 6.1 | 0.00 | 0.02 | 0.02 | 60 | 1010.7 |
| 20260504213113 | 73 | 188 | 2.6 | 7.0 | 0.00 | 0.02 | 0.02 | 60 | 1010.8 |
| 20260504211556 | 72 | 218 | 0.0 | 4.3 | 0.00 | 0.02 | 0.02 | 63 | 1011.1 |
| 20260504210038 | 71 | 198 | 0.0 | 5.2 | 0.00 | 0.02 | 0.02 | 63 | 1011.3 |
| 20260504204537 | 69 | 207 | 0.0 | 6.1 | 0.00 | 0.02 | 0.02 | 64 | 1011.5 |
| 20260504203020 | 68 | 182 | 0.0 | 7.8 | 0.00 | 0.02 | 0.02 | 66 | 1011.8 |
| 20260504201521 | 67 | 196 | 3.5 | 7.8 | 0.00 | 0.02 | 0.02 | 68 | 1011.9 |
| 20260504200002 | 66 | 186 | 0.9 | 5.2 | 0.00 | 0.02 | 0.02 | 69 | 1012.0 |
| 20260504194501 | 65 | 169 | 0.0 | 6.1 | 0.00 | 0.02 | 0.02 | 71 | 1012.1 |
| 20260504193041 | 64 | 181 | 2.6 | 7.0 | 0.00 | 0.02 | 0.02 | 72 | 1012.2 |
| 20260504191548 | 64 | 225 | 0.0 | 7.0 | 0.00 | 0.02 | 0.02 | 74 | 1012.2 |
| 20260504190023 | 63 | 159 | 2.6 | 6.1 | 0.00 | 0.02 | 0.02 | 74 | 1012.4 |
| 20260504184524 | 62 | 186 | 2.6 | 6.1 | 0.00 | 0.02 | 0.02 | 75 | 1012.7 |
| 20260504183005 | 62 | 169 | 2.6 | 7.0 | 0.00 | 0.02 | 0.02 | 76 | 1012.6 |
| 20260504181505 | 62 | 256 | 1.7 | 4.3 | 0.00 | 0.02 | 0.02 | 76 | 1012.4 |
| 20260504180052 | 61 | 182 | 0.9 | 6.1 | 0.00 | 0.02 | 0.02 | 76 | 1012.6 |
| 20260504174546 | 61 | 161 | 2.6 | 6.1 | 0.00 | 0.02 | 0.02 | 78 | 1012.6 |
| 20260504173031 | 60 | 212 | 1.7 | 6.1 | 0.00 | 0.02 | 0.02 | 79 | 1012.6 |
| 20260504171530 | 59 | 194 | 1.7 | 7.0 | 0.00 | 0.02 | 0.02 | 81 | 1012.5 |